User: anonymous   Login
Location: Livonia
(42.3680°N, 83.3530°W)
Time: 09:33:47
(UTC-04:00)
Language:

MOZ.5/SAFIR/RUBIN 5/SL-8 - Orbit

View from above orbital plane
View from above orbital plane
View from above satellite
View from above satellite

Ground track
Ground track

The orbit data is extracted from the following two-line orbital elements,

1 28898U 05043G   17117.89012611 +.00000041 +00000-0 +17801-4 0  9998
2 28898 097.9190 269.8442 0019425 350.1554 009.9264 14.60174893235868
Epoch (UTC): 27 April 2017 21:21:46
Eccentricity: 0.0019425
inclination: 97.9190°
perigee height: 679 km
apogee height: 706 km
right ascension of ascending node: 269.8442°
argument of perigee: 350.1554°
revolutions per day: 14.60174893
mean anomaly at epoch: 9.9264°
orbit number at epoch: 23586

The dashed part of the orbit path shows where the satellite is in the earth's shadow,  

DLR